JASON-3

Last updated on Sat Apr 13 2024 01:02:24 GMT+0100 (British Summer Time)

1 41240U 16002A 24103.60510216 -.00000030 00000+0 13260-3 0 9999 2 41240 66.0442 347.5547 0007943 274.9076 85.1032 12.80931487385107
UTC large
Height (km)
Speed (km/s)
/
Latitude / Longitude
Inclination (degrees)
Orbital Period (minutes)
Azimuth
Elevation
Range (km)
Doppler Factor

Next 0 passes for location: London (51.5072 / 0.1276)

Sorry there are no passes over London.